• In Russia
  • List of Countries
  • For 7 days
  • Water Temperature
  • Weather Map
  • Weather Widgets
  • user-avatar
    Login

    Hourly Weather Tarin Kowt

    Today, 22 September, Sunday

    Time Temperature Precipitation Wind Pressure Humidity
    00:00 +18°C° 0 mm 1 mps 615 mmHg 16%
    01:00 +16°C° 0 mm 0 mps 615 mmHg 16%
    02:00 +16°C° 0 mm 1 mps 615 mmHg 17%
    03:00 +16°C° 0 mm 1 mps 615 mmHg 17%
    04:00 +16°C° 0 mm 1 mps 615 mmHg 25%
    05:00 +20°C° 0 mm 1 mps 617 mmHg 21%
    06:00 +22°C° 0 mm 1 mps 618 mmHg 16%
    07:00 +25°C° 0 mm 1 mps 620 mmHg 11%
    08:00 +27°C° 0 mm 1 mps 620 mmHg 10%
    09:00 +29°C° 0 mm 1 mps 621 mmHg 9%
    10:00 +31°C° 0 mm 1 mps 621 mmHg 7%
    11:00 +32°C° 0 mm 2 mps 621 mmHg 7%
    12:00 +34°C° 0 mm 2 mps 621 mmHg 6%
    13:00 +34°C° 0 mm 3 mps 621 mmHg 6%
    14:00 +34°C° 0 mm 3 mps 621 mmHg 5%
    15:00 +34°C° 0 mm 3 mps 620 mmHg 5%
    16:00 +34°C° 0 mm 4 mps 620 mmHg 5%
    17:00 +30°C° 0 mm 3 mps 619 mmHg 7%
    18:00 +26°C° 0 mm 3 mps 618 mmHg 8%
    19:00 +23°C° 0 mm 2 mps 617 mmHg 10%
    20:00 +21°C° 0 mm 2 mps 617 mmHg 11%
    21:00 +21°C° 0 mm 1 mps 617 mmHg 12%
    22:00 +20°C° 0 mm 1 mps 617 mmHg 12%
    23:00 +19°C° 0 mm 1 mps 617 mmHg 13%

    Tomorrow, 23 September, Monday

    Time Temperature Precipitation Wind Pressure Humidity
    00:00 +19°C° 0 mm 1 mps 616 mmHg 13%
    01:00 +18°C° 0 mm 1 mps 616 mmHg 14%
    02:00 +18°C° 0 mm 1 mps 616 mmHg 14%
    03:00 +16°C° 0 mm 1 mps 616 mmHg 15%
    04:00 +16°C° 0 mm 1 mps 616 mmHg 15%
    05:00 +18°C° 0 mm 2 mps 617 mmHg 13%
    06:00 +21°C° 0 mm 2 mps 619 mmHg 11%
    07:00 +24°C° 0 mm 2 mps 620 mmHg 9%
    08:00 +26°C° 0 mm 2 mps 621 mmHg 8%
    09:00 +28°C° 0 mm 1 mps 621 mmHg 7%
    10:00 +30°C° 0 mm 1 mps 621 mmHg 6%
    11:00 +31°C° 0 mm 1 mps 621 mmHg 6%
    12:00 +33°C° 0 mm 1 mps 621 mmHg 5%
    13:00 +35°C° 0 mm 2 mps 621 mmHg 5%
    14:00 +35°C° 0 mm 2 mps 621 mmHg 4%
    15:00 +35°C° 0 mm 3 mps 620 mmHg 4%
    16:00 +35°C° 0 mm 4 mps 620 mmHg 4%
    17:00 +30°C° 0 mm 3 mps 619 mmHg 6%
    18:00 +27°C° 0 mm 3 mps 619 mmHg 8%
    19:00 +24°C° 0 mm 3 mps 618 mmHg 10%
    20:00 +21°C° 0 mm 3 mps 618 mmHg 13%
    21:00 +20°C° 0 mm 2 mps 618 mmHg 16%
    22:00 +19°C° 0 mm 2 mps 618 mmHg 20%
    23:00 +19°C° 0 mm 1 mps 617 mmHg 21%

    Day after tomorrow, 24 September, Tuesday

    Time Temperature Precipitation Wind Pressure Humidity
    00:00 +19°C° 0 mm 1 mps 617 mmHg 21%
    01:00 +18°C° 0 mm 1 mps 617 mmHg 22%
    02:00 +16°C° 0 mm 1 mps 616 mmHg 23%
    03:00 +16°C° 0 mm 1 mps 616 mmHg 24%
    04:00 +16°C° 0 mm 1 mps 616 mmHg 25%
    05:00 +19°C° 0 mm 1 mps 617 mmHg 21%
    06:00 +22°C° 0 mm 1 mps 619 mmHg 17%
    07:00 +25°C° 0 mm 1 mps 620 mmHg 13%
    08:00 +27°C° 0 mm 1 mps 621 mmHg 11%
    09:00 +29°C° 0 mm 1 mps 621 mmHg 10%
    10:00 +31°C° 0 mm 1 mps 622 mmHg 8%
    11:00 +32°C° 0 mm 2 mps 622 mmHg 7%
    12:00 +34°C° 0 mm 3 mps 621 mmHg 7%
    13:00 +35°C° 0 mm 3 mps 621 mmHg 6%
    14:00 +35°C° 0 mm 4 mps 621 mmHg 7%
    15:00 +34°C° 0 mm 4 mps 620 mmHg 7%
    16:00 +34°C° 0 mm 4 mps 620 mmHg 7%
    17:00 +29°C° 0 mm 4 mps 619 mmHg 9%
    18:00 +26°C° 0 mm 3 mps 618 mmHg 11%
    19:00 +23°C° 0 mm 2 mps 617 mmHg 13%
    20:00 +21°C° 0 mm 2 mps 617 mmHg 15%
    21:00 +21°C° 0 mm 1 mps 617 mmHg 17%
    22:00 +20°C° 0 mm 1 mps 617 mmHg 18%
    23:00 +19°C° 0 mm 1 mps 617 mmHg 19%

    25 September, Wednesday

    Time Temperature Precipitation Wind Pressure Humidity
    00:00 +19°C° 0 mm 1 mps 616 mmHg 19%
    01:00 +18°C° 0 mm 1 mps 616 mmHg 20%
    02:00 +18°C° 0 mm 1 mps 616 mmHg 20%
    03:00 +18°C° 0 mm 1 mps 616 mmHg 20%
    04:00 +16°C° 0 mm 1 mps 616 mmHg 20%
    05:00 +20°C° 0 mm 1 mps 618 mmHg 17%
    06:00 +22°C° 0 mm 1 mps 619 mmHg 14%
    07:00 +25°C° 0 mm 1 mps 621 mmHg 12%
    08:00 +27°C° 0 mm 1 mps 621 mmHg 11%
    09:00 +29°C° 0 mm 1 mps 622 mmHg 9%
    10:00 +31°C° 0 mm 1 mps 622 mmHg 8%
    11:00 +32°C° 0 mm 2 mps 622 mmHg 8%
    12:00 +34°C° 0 mm 2 mps 622 mmHg 7%
    13:00 +35°C° 0 mm 3 mps 622 mmHg 6%
    14:00 +35°C° 0 mm 3 mps 622 mmHg 7%
    15:00 +35°C° 0 mm 4 mps 621 mmHg 7%
    16:00 +34°C° 0 mm 4 mps 621 mmHg 7%
    17:00 +30°C° 0 mm 3 mps 620 mmHg 9%
    18:00 +26°C° 0 mm 2 mps 619 mmHg 11%
    19:00 +23°C° 0 mm 2 mps 619 mmHg 14%
    20:00 +22°C° 0 mm 1 mps 619 mmHg 14%
    21:00 +21°C° 0 mm 1 mps 618 mmHg 15%
    22:00 +20°C° 0 mm 1 mps 618 mmHg 16%
    23:00 +20°C° 0 mm 1 mps 618 mmHg 17%

    26 September, Thursday

    Time Temperature Precipitation Wind Pressure Humidity
    00:00 +19°C° 0 mm 1 mps 618 mmHg 17%
    01:00 +19°C° 0 mm 1 mps 618 mmHg 18%
    02:00 +19°C° 0 mm 1 mps 618 mmHg 18%
    03:00 +19°C° 0 mm 1 mps 618 mmHg 18%
    04:00 +18°C° 0 mm 1 mps 618 mmHg 18%
    05:00 +21°C° 0 mm 1 mps 619 mmHg 16%
    06:00 +23°C° 0 mm 1 mps 621 mmHg 14%
    07:00 +25°C° 0 mm 1 mps 622 mmHg 12%
    08:00 +27°C° 0 mm 1 mps 623 mmHg 11%
    09:00 +29°C° 0 mm 1 mps 623 mmHg 9%
    10:00 +31°C° 0 mm 1 mps 624 mmHg 8%
    11:00 +32°C° 0 mm 2 mps 623 mmHg 8%
    12:00 +34°C° 0 mm 2 mps 623 mmHg 7%
    13:00 +35°C° 0 mm 2 mps 623 mmHg 6%
    14:00 +35°C° 0 mm 3 mps 622 mmHg 6%
    15:00 +35°C° 0 mm 3 mps 622 mmHg 6%
    16:00 +35°C° 0 mm 4 mps 621 mmHg 6%
    17:00 +30°C° 0 mm 3 mps 620 mmHg 8%
    18:00 +27°C° 0 mm 2 mps 619 mmHg 11%
    19:00 +23°C° 0 mm 2 mps 618 mmHg 13%
    20:00 +22°C° 0 mm 1 mps 618 mmHg 13%
    21:00 +22°C° 0 mm 1 mps 618 mmHg 14%
    22:00 +21°C° 0 mm 1 mps 618 mmHg 15%
    23:00 +20°C° 0 mm 1 mps 618 mmHg 15%

    27 September, Friday

    Time Temperature Precipitation Wind Pressure Humidity
    00:00 +19°C° 0 mm 1 mps 618 mmHg 16%
    01:00 +19°C° 0 mm 1 mps 618 mmHg 17%
    02:00 +18°C° 0 mm 1 mps 618 mmHg 17%
    03:00 +18°C° 0 mm 1 mps 617 mmHg 17%
    04:00 +18°C° 0 mm 1 mps 617 mmHg 18%
    05:00 +20°C° 0 mm 1 mps 619 mmHg 16%
    06:00 +21°C° 0 mm 2 mps 620 mmHg 14%
    07:00 +24°C° 0 mm 2 mps 621 mmHg 11%
    08:00 +26°C° 0 mm 2 mps 622 mmHg 10%
    09:00 +29°C° 0 mm 1 mps 622 mmHg 9%
    10:00 +31°C° 0 mm 1 mps 622 mmHg 7%
    11:00 +32°C° 0 mm 2 mps 622 mmHg 6%
    12:00 +34°C° 0 mm 2 mps 622 mmHg 6%
    13:00 +35°C° 0 mm 3 mps 622 mmHg 5%
    14:00 +35°C° 0 mm 3 mps 621 mmHg 5%
    15:00 +35°C° 0 mm 3 mps 621 mmHg 5%
    16:00 +35°C° 0 mm 2 mps 621 mmHg 5%
    17:00 +31°C° 0 mm 2 mps 619 mmHg 7%
    18:00 +28°C° 0 mm 2 mps 618 mmHg 9%
    19:00 +24°C° 0 mm 2 mps 617 mmHg 10%
    20:00 +23°C° 0 mm 2 mps 617 mmHg 11%
    21:00 +21°C° 0 mm 2 mps 617 mmHg 11%
    22:00 +21°C° 0 mm 1 mps 617 mmHg 12%
    23:00 +20°C° 0 mm 2 mps 617 mmHg 13%
    Show more